SCP
-0 -0 -0 -0 -0 -0 -0 -0 -0 -0 -0 -0 -0 -0 -0 0 0 0 0 -0 -0 -0 -0 0 -0 0 0 0 0 0 1 1 0 0 -0 -0 0 0 1 1 1 1 1
-0 -0 -0 -0 -0 -0 -0 -0 -0 -0 -0 -0 -0 -0 0 0 0 0 0 0 0 0 0 -0 0 -0 0 0 0 0 0 1 1 0 -0 -0 -0 0 0 1 1 1 1
-0 -0 -0 -0 -0 -0 -0 -0 -0 -0 -0 0 -0 -0 -0 -1 -0 -0 0 0 0 0 -0 -0 0 -0 0 0 -0 0 1 1 0 0 0 -0 -0 -0 0 1 2 2 2
-0 -0 -0 -0 -0 -0 -0 -0 -0 0 -0 -0 -0 0 0 0 0 0 0 0 -0 -0 0 0 0 0 0 0 0 0 0 0 0 1 1 1 1 0 0 1 2 2 2
-0 -0 -0 -0 -0 -0 -0 -0 -0 0 0 0 -0 0 0 -0 -0 -0 0 0 0 -0 -0 0 1 1 0 0 0 -0 0 0 0 -0 -0 -1 0 0 0 0 0 1 2
-0 -0 -0 -0 0 0 -0 -0 -0 0 -0 -0 -0 0 -0 0 -0 -0 -0 0 0 -0 0 0 1 1 0 0 0 0 0 1 0 0 0 0 0 1 0 0 1 1 2
-0 -0 -0 -0 -0 -0 -0 -0 -1 -1 -1 -0 -0 -0 -0 0 -0 -0 0 -0 -0 0 0 0 1 0 0 0 0 1 1 0 0 0 0 0 -0 0 -0 1 1 1 2
-0 -0 -0 -0 -0 -0 -0 -0 -2 -1 -0 -0 -0 0 0 0 0 -0 0 -0 -0 -0 0 -0 0 0 0 0 0 1 0 0 1 0 1 0 0 0 1 1 1 1 2
-0 -0 -0 -0 -0 -0 -0 -0 -2 -1 -0 -0 -0 -0 -0 -0 -0 -0 -0 -0 0 0 0 -0 0 0 0 0 0 0 0 0 1 0 1 1 1 1 2 1 2 2 1
-0 -0 -0 -0 -0 -0 -0 -0 -1 -1 -1 -1 -1 -0 -0 -0 -0 0 0 0 0 -0 -0 0 0 0 0 1 1 1 1 1 1 1 1 2 2 1 1 2 3 2 2
-0 -0 -0 -0 -0 -0 -0 -0 -0 -2 -1 -0 -1 -0 -0 -0 -0 -0 -0 0 0 0 -0 -0 0 0 0 0 1 1 1 1 1 2 2 2 3 2 1 2 1 1 2
0 -0 -0 -0 -0 -0 -0 -0 -0 -1 -0 0 0 0 0 0 -0 -0 -0 -0 0 0 -0 0 0 0 0 0 1 1 1 1 1 1 2 2 2 3 2 1 2 3 3
-1 -3 -5 -4 -3 -3 -1 -0 0 -0 0 1 1 2 2 2 2 2 1 1 0 0 0 0 0 0 0 0 1 1 1 1 1 2 2 2 3 4 4 2 2 1 2
-1 -0 -1 -1 -1 -1 -0 -0 0 0 2 2 1 2 1 1 2 2 2 1 1 1 1 1 1 1 1 1 1 1 2 2 2 2 2 2 2 2 3 2 2 1 3
1 1 1 1 1 2 1 2 2 1 2 1 1 1 1 2 1 1 1 1 2 2 2 2 1 2 2 2 2 2 2 2 2 2 3 2 2 2 4 4 3 2 2
1 1 1 1 1 2 2 2 2 3 3 3 3 2 2 3 2 1 1 2 2 2 2 2 3 3 3 0 0 1 1 2 2 1 2 3 3 2 3 2 3 3 3
1 1 1 1 1 2 2 1 2 2 3 1 0 0 0 0 1 0 1 1 2 2 2 2 2 2 2 1 0 0 1 1 1 2 2 2 3 4 4 1 1 0 0
1 1 1 1 0 0 0 0 0 0 0 1 0 0 0 0 0 0 1 1 1 1 1 1 1 1 1 0 0 0 1 1 1 1 1 2 3 5 6 3 2 1 1
1 1 0 0 0 0 0 0 0 0 0 0 0 0 0 0 0 0 0 0 0 0 0 1 1 1 3 2 1 0 1 0 1 1 1 2 4 6 4 5 2 2 1
1 0 0 0 0 0 0 0 0 0 0 0 0 0 0 0 0 0 0 0 0 0 0 0 1 1 0 0 0 0 1 0 1 1 1 4 5 4 3 4 3 2 1
0 0 0 0 0 0 0 0 0 0 0 0 0 0 0 0 0 0 0 0 0 0 0 0 0 0 1 1 0 0 0 1 1 0 0 1 2 0 0 2 4 2 2
0 0 0 0 0 0 0 0 0 0 0 0 0 0 0 0 0 0 0 0 0 0 0 0 0 0 0 0 0 0 0 1 2 1 0 2 1 0 0 0 3 0 1
0 0 0 0 0 0 0 0 0 0 0 0 0 0 0 0 0 0 0 0 0 0 0 0 0 0 0 0 0 0 0 0 1 1 0 0 0 0 0 0 0 0 0
0 0 0 0 0 0 0 0 0 0 0 0 0 0 0 0 0 0 0 0 0 0 0 0 0 0 0 0 0 0 0 0 0 0 0 0 0 0 0 0 0 0 0
0 0 0 0 0 0 0 0 0 0 0 0 0 0 0 0 0 0 0 0 0 0 0 0 0 0 0 0 0 0 0 0 0 0 0 1 1 0 0 0 0 0 0
0 0 0 0 0 0 0 0 0 0 0 0 0 0 0 0 0 0 0 0 0 0 0 0 0 0 0 0 0 0 0 0 0 0 0 0 0 0 0 0 0 0 0
Wind_Speed_500mb
42 42 39 41 42 35 38 37 37 34 28 25 15 14 19 17 21 6 19 12 12 11 12 8 13 11 9 12 15 13 14 23 19 23 24 8 29 10 7 7 15 17 19
49 49 44 46 44 44 39 40 37 36 34 26 25 25 15 20 21 16 17 23 15 15 14 11 7 10 8 17 13 17 13 13 9 17 17 23 18 24 16 18 8 15 12
54 56 53 51 48 47 44 41 42 38 32 32 24 23 23 24 12 17 17 20 13 12 19 7 8 10 12 18 14 9 13 24 19 17 17 11 14 22 21 21 19 21 12
51 59 56 52 49 50 43 41 38 43 34 33 34 26 22 18 17 10 26 28 16 15 12 18 11 13 20 24 30 12 25 19 21 24 20 25 28 12 12 19 21 18 22
47 54 54 55 48 47 46 43 41 39 38 31 35 29 33 24 21 18 7 10 9 20 18 15 16 13 18 24 17 25 21 27 13 18 16 15 26 17 11 16 21 11 12
46 52 53 56 49 48 46 48 41 35 35 44 34 39 30 25 25 21 23 21 19 29 30 16 24 24 21 17 20 21 24 24 23 17 15 22 29 36 28 20 21 23 23
46 47 55 56 48 50 46 49 52 35 38 42 36 42 40 32 33 31 19 23 23 29 33 21 20 22 20 21 18 27 26 25 25 21 22 13 25 27 32 30 26 23 21
45 43 50 55 53 50 48 40 45 36 38 41 37 33 37 38 29 30 36 22 24 19 18 14 23 33 39 30 28 29 24 21 26 27 32 20 12 25 34 22 26 24 19
44 41 43 44 48 45 50 44 43 34 36 40 41 39 33 31 24 18 23 21 26 33 20 29 35 35 36 33 31 34 29 33 33 31 29 26 18 21 31 35 19 28 17
39 38 42 45 43 41 41 38 43 42 38 39 40 38 34 31 32 34 35 29 31 28 36 35 34 34 38 35 35 36 32 30 33 32 24 31 30 34 26 26 25 30 17
44 48 42 44 41 38 40 40 41 39 34 34 33 32 31 30 29 30 36 36 36 37 40 40 40 41 40 39 41 41 41 39 37 40 43 44 40 35 32 24 24 25 27
29 67 39 44 36 43 42 39 36 39 29 25 28 29 25 21 19 23 21 22 28 33 35 34 34 35 37 37 37 38 39 39 38 36 36 37 40 40 39 30 20 26 32
43 61 43 35 28 35 30 27 25 26 24 26 31 25 30 34 41 37 34 32 31 30 32 29 30 35 36 36 35 33 33 34 35 35 41 41 44 43 37 31 17 36 35
41 39 41 40 37 37 35 36 31 28 21 19 20 23 22 20 17 19 22 20 16 15 16 22 27 29 29 31 32 28 28 31 36 36 38 38 44 45 41 35 37 26 40
29 31 35 32 29 31 33 33 29 29 32 31 27 18 21 20 13 21 25 23 25 26 23 25 22 20 20 24 30 29 28 35 37 41 38 39 42 44 43 37 36 39 29
31 30 32 37 41 36 30 34 36 31 30 29 30 29 25 24 23 11 6 7 1 5 9 12 16 21 17 27 30 39 42 40 39 42 43 46 45 48 51 50 44 50 39
35 33 34 35 34 33 24 24 25 25 20 18 16 9 16 22 17 42 16 20 18 20 21 20 22 23 24 27 29 33 39 42 43 43 42 41 39 46 49 48 41 45 45
35 32 30 26 24 25 21 16 12 9 10 9 8 7 6 26 18 37 33 34 39 40 43 43 41 41 45 45 46 52 57 58 56 47 39 40 36 46 53 57 47 43 45
31 27 24 25 22 16 14 9 5 1 6 4 14 17 19 21 28 36 39 45 52 53 56 56 57 56 57 62 67 68 68 71 70 65 54 37 38 43 48 58 44 46 44
27 24 22 19 14 11 7 4 1 4 7 12 18 27 33 38 44 47 49 52 53 57 60 61 59 62 66 68 69 69 69 70 66 64 43 34 43 38 48 52 52 47 44
21 17 13 10 8 2 3 6 9 13 22 29 36 40 43 46 47 47 52 57 62 65 69 72 72 69 68 67 62 55 49 50 51 52 53 50 55 44 42 50 55 47 43
16 11 7 4 1 5 10 12 15 20 29 34 39 42 46 48 51 56 61 63 65 65 66 65 65 61 55 47 40 37 41 45 53 53 54 55 48 35 41 48 54 56 45
10 4 3 4 6 9 12 15 20 28 29 34 40 43 48 52 53 53 55 55 54 55 56 55 56 55 52 51 51 49 50 49 55 49 46 40 24 28 36 45 53 59 53
1 5 7 8 12 15 19 21 26 30 36 39 41 44 46 45 47 50 50 52 52 54 55 53 50 46 41 37 41 36 32 24 29 30 22 30 38 52 39 39 48 60 63
6 8 12 16 19 22 24 27 31 36 40 43 46 45 45 45 54 53 52 58 64 54 57 54 56 64 71 77 73 47 55 45 50 46 47 38 39 43 44 44 53 63 71
10 13 15 18 21 26 29 32 34 34 39 39 42 46 49 51 54 56 60 60 57 55 60 74 60 50 63 68 64 72 89 88 81 71 65 49 48 48 48 48 56 65 64
Wind_Direction_500mb
187 178 184 178 171 177 177 182 177 193 191 204 192 185 205 219 241 237 222 274 289 296 310 279 227 330 286 322 329 10 328 355 342 358 359 41 65 239 189 326 9 348 344
182 177 184 179 178 184 188 189 188 206 196 190 197 215 228 237 240 235 221 253 230 253 263 268 299 294 328 311 313 326 349 312 346 341 3 12 21 45 3 339 329 312 356
185 178 180 182 183 187 192 203 195 210 205 188 212 232 217 226 225 226 228 246 253 260 265 274 286 302 310 306 238 247 324 334 4 349 341 360 12 354 349 325 298 303 309
185 175 178 187 188 189 197 206 213 206 221 194 198 215 227 220 231 229 247 247 241 246 241 273 300 326 308 294 319 17 332 326 339 341 338 348 332 324 343 7 323 307 305
181 176 183 187 197 196 197 205 221 221 209 226 204 216 223 223 240 229 231 215 201 265 246 240 267 287 305 303 324 306 313 330 320 307 332 329 334 268 223 1 349 317 300
176 178 182 186 196 199 200 204 216 227 218 219 218 203 226 221 215 225 244 245 267 267 272 238 240 264 278 287 288 284 299 311 313 320 332 323 326 316 328 21 339 325 273
173 176 176 184 193 202 200 206 204 221 228 217 222 212 212 226 220 229 222 243 256 271 273 256 250 289 276 284 275 286 298 313 313 318 323 313 312 311 334 322 306 309 289
168 176 180 186 192 202 203 202 204 224 227 216 218 220 220 227 232 225 231 229 256 269 300 248 268 283 288 273 274 284 299 306 307 301 308 311 338 307 321 312 327 304 309
165 177 181 186 190 198 199 201 209 225 219 213 218 223 225 225 225 227 259 257 242 248 272 266 273 282 280 278 283 277 286 288 294 301 304 308 304 317 306 313 298 293 289
167 172 179 182 188 193 197 202 211 226 226 217 219 221 225 228 222 219 221 227 232 237 248 259 263 270 280 282 278 278 276 285 287 281 280 283 278 269 276 294 288 280 289
177 175 181 184 190 188 196 197 200 209 221 220 224 226 232 235 244 242 240 248 253 254 257 265 270 274 276 275 275 277 278 277 275 278 278 283 284 283 278 273 299 316 302
229 160 158 175 186 195 191 190 193 199 207 207 208 229 234 240 258 269 268 261 259 262 269 278 281 281 281 280 277 277 281 281 276 277 281 280 282 281 290 294 278 283 282
62 69 92 95 101 99 112 113 144 159 170 181 198 188 199 205 215 214 221 242 258 263 268 261 270 283 287 288 287 284 286 290 292 289 278 269 271 275 276 283 269 312 287
74 78 81 91 97 106 109 119 134 150 145 149 168 179 203 212 216 208 222 234 245 258 278 283 288 286 286 291 299 304 306 297 293 288 286 282 268 272 280 284 268 275 253
89 84 83 88 90 92 94 91 107 123 149 160 145 119 153 169 187 208 229 232 241 244 237 243 245 264 283 283 283 282 285 288 294 293 289 286 285 284 278 272 272 278 274
114 108 102 95 94 96 94 104 103 103 103 81 74 77 82 65 34 16 34 327 281 259 258 258 258 249 230 266 276 275 283 288 290 288 289 280 282 280 278 272 270 268 267
128 124 118 114 109 104 105 107 106 94 88 89 99 73 7 333 30 309 328 318 326 315 308 304 304 298 289 285 288 294 298 300 301 300 294 289 272 274 274 271 267 263 265
137 136 131 128 132 134 127 123 120 119 107 87 31 328 276 250 233 289 305 309 305 305 305 302 298 292 289 292 294 298 301 302 304 302 299 288 293 278 275 276 271 251 258
143 139 137 132 132 124 128 114 76 315 258 244 265 274 292 291 281 288 301 300 298 299 299 298 298 298 294 296 300 300 300 301 301 299 299 290 281 281 271 274 272 247 249
143 144 147 142 126 118 119 122 96 263 294 284 288 293 302 306 307 309 306 302 300 299 298 295 293 291 290 291 293 295 295 294 293 295 301 277 262 262 270 265 270 243 242
147 149 146 141 136 106 284 322 303 298 288 292 299 303 306 305 306 306 302 301 299 295 293 293 293 292 292 292 291 292 291 290 292 300 305 302 279 264 260 263 260 262 240
148 144 150 151 328 315 317 309 306 292 293 298 301 303 305 305 303 302 301 301 302 301 300 299 300 303 304 304 299 291 285 289 289 293 300 302 293 275 246 254 258 238 218
150 175 237 274 293 301 311 307 300 304 306 304 306 305 305 306 308 309 309 305 301 295 294 293 294 296 297 295 292 290 285 279 269 276 290 291 289 280 258 245 248 227 214
194 276 293 303 312 307 306 309 309 306 303 305 307 307 309 316 315 312 305 299 296 294 294 294 295 297 301 305 299 275 274 282 270 280 276 297 294 309 294 248 234 218 218
279 302 318 318 312 310 305 304 304 307 308 308 313 320 316 308 304 307 298 291 281 284 296 294 293 293 294 288 282 273 288 282 287 282 288 284 288 299 288 257 240 234 224
310 320 311 306 303 305 308 310 297 295 298 300 306 302 305 307 306 306 306 305 295 290 291 279 283 294 283 284 294 282 274 282 290 289 287 284 281 286 283 265 246 239 234
Wind_Speed_850mb
42 42 39 41 42 35 38 37 37 34 28 25 15 14 19 17 21 6 19 12 12 11 12 8 13 11 9 12 15 13 14 23 19 23 24 8 29 10 7 7 15 17 19
49 49 44 46 44 44 39 40 37 36 34 26 25 25 15 20 21 16 17 23 15 15 14 11 7 10 8 17 13 17 13 13 9 17 17 23 18 24 16 18 8 15 12
54 56 53 51 48 47 44 41 42 38 32 32 24 23 23 24 12 17 17 20 13 12 19 7 8 10 12 18 14 9 13 24 19 17 17 11 14 22 21 21 19 21 12
51 59 56 52 49 50 43 41 38 43 34 33 34 26 22 18 17 10 26 28 16 15 12 18 11 13 20 24 30 12 25 19 21 24 20 25 28 12 12 19 21 18 22
47 54 54 55 48 47 46 43 41 39 38 31 35 29 33 24 21 18 7 10 9 20 18 15 16 13 18 24 17 25 21 27 13 18 16 15 26 17 11 16 21 11 12
46 52 53 56 49 48 46 48 41 35 35 44 34 39 30 25 25 21 23 21 19 29 30 16 24 24 21 17 20 21 24 24 23 17 15 22 29 36 28 20 21 23 23
46 47 55 56 48 50 46 49 52 35 38 42 36 42 40 32 33 31 19 23 23 29 33 21 20 22 20 21 18 27 26 25 25 21 22 13 25 27 32 30 26 23 21
45 43 50 55 53 50 48 40 45 36 38 41 37 33 37 38 29 30 36 22 24 19 18 14 23 33 39 30 28 29 24 21 26 27 32 20 12 25 34 22 26 24 19
44 41 43 44 48 45 50 44 43 34 36 40 41 39 33 31 24 18 23 21 26 33 20 29 35 35 36 33 31 34 29 33 33 31 29 26 18 21 31 35 19 28 17
39 38 42 45 43 41 41 38 43 42 38 39 40 38 34 31 32 34 35 29 31 28 36 35 34 34 38 35 35 36 32 30 33 32 24 31 30 34 26 26 25 30 17
44 48 42 44 41 38 40 40 41 39 34 34 33 32 31 30 29 30 36 36 36 37 40 40 40 41 40 39 41 41 41 39 37 40 43 44 40 35 32 24 24 25 27
29 67 39 44 36 43 42 39 36 39 29 25 28 29 25 21 19 23 21 22 28 33 35 34 34 35 37 37 37 38 39 39 38 36 36 37 40 40 39 30 20 26 32
43 61 43 35 28 35 30 27 25 26 24 26 31 25 30 34 41 37 34 32 31 30 32 29 30 35 36 36 35 33 33 34 35 35 41 41 44 43 37 31 17 36 35
41 39 41 40 37 37 35 36 31 28 21 19 20 23 22 20 17 19 22 20 16 15 16 22 27 29 29 31 32 28 28 31 36 36 38 38 44 45 41 35 37 26 40
29 31 35 32 29 31 33 33 29 29 32 31 27 18 21 20 13 21 25 23 25 26 23 25 22 20 20 24 30 29 28 35 37 41 38 39 42 44 43 37 36 39 29
31 30 32 37 41 36 30 34 36 31 30 29 30 29 25 24 23 11 6 7 1 5 9 12 16 21 17 27 30 39 42 40 39 42 43 46 45 48 51 50 44 50 39
35 33 34 35 34 33 24 24 25 25 20 18 16 9 16 22 17 42 16 20 18 20 21 20 22 23 24 27 29 33 39 42 43 43 42 41 39 46 49 48 41 45 45
35 32 30 26 24 25 21 16 12 9 10 9 8 7 6 26 18 37 33 34 39 40 43 43 41 41 45 45 46 52 57 58 56 47 39 40 36 46 53 57 47 43 45
31 27 24 25 22 16 14 9 5 1 6 4 14 17 19 21 28 36 39 45 52 53 56 56 57 56 57 62 67 68 68 71 70 65 54 37 38 43 48 58 44 46 44
27 24 22 19 14 11 7 4 1 4 7 12 18 27 33 38 44 47 49 52 53 57 60 61 59 62 66 68 69 69 69 70 66 64 43 34 43 38 48 52 52 47 44
21 17 13 10 8 2 3 6 9 13 22 29 36 40 43 46 47 47 52 57 62 65 69 72 72 69 68 67 62 55 49 50 51 52 53 50 55 44 42 50 55 47 43
16 11 7 4 1 5 10 12 15 20 29 34 39 42 46 48 51 56 61 63 65 65 66 65 65 61 55 47 40 37 41 45 53 53 54 55 48 35 41 48 54 56 45
10 4 3 4 6 9 12 15 20 28 29 34 40 43 48 52 53 53 55 55 54 55 56 55 56 55 52 51 51 49 50 49 55 49 46 40 24 28 36 45 53 59 53
1 5 7 8 12 15 19 21 26 30 36 39 41 44 46 45 47 50 50 52 52 54 55 53 50 46 41 37 41 36 32 24 29 30 22 30 38 52 39 39 48 60 63
6 8 12 16 19 22 24 27 31 36 40 43 46 45 45 45 54 53 52 58 64 54 57 54 56 64 71 77 73 47 55 45 50 46 47 38 39 43 44 44 53 63 71
10 13 15 18 21 26 29 32 34 34 39 39 42 46 49 51 54 56 60 60 57 55 60 74 60 50 63 68 64 72 89 88 81 71 65 49 48 48 48 48 56 65 64
Wind_Direction_850mb
187 178 184 178 171 177 177 182 177 193 191 204 192 185 205 219 241 237 222 274 289 296 310 279 227 330 286 322 329 10 328 355 342 358 359 41 65 239 189 326 9 348 344
182 177 184 179 178 184 188 189 188 206 196 190 197 215 228 237 240 235 221 253 230 253 263 268 299 294 328 311 313 326 349 312 346 341 3 12 21 45 3 339 329 312 356
185 178 180 182 183 187 192 203 195 210 205 188 212 232 217 226 225 226 228 246 253 260 265 274 286 302 310 306 238 247 324 334 4 349 341 360 12 354 349 325 298 303 309
185 175 178 187 188 189 197 206 213 206 221 194 198 215 227 220 231 229 247 247 241 246 241 273 300 326 308 294 319 17 332 326 339 341 338 348 332 324 343 7 323 307 305
181 176 183 187 197 196 197 205 221 221 209 226 204 216 223 223 240 229 231 215 201 265 246 240 267 287 305 303 324 306 313 330 320 307 332 329 334 268 223 1 349 317 300
176 178 182 186 196 199 200 204 216 227 218 219 218 203 226 221 215 225 244 245 267 267 272 238 240 264 278 287 288 284 299 311 313 320 332 323 326 316 328 21 339 325 273
173 176 176 184 193 202 200 206 204 221 228 217 222 212 212 226 220 229 222 243 256 271 273 256 250 289 276 284 275 286 298 313 313 318 323 313 312 311 334 322 306 309 289
168 176 180 186 192 202 203 202 204 224 227 216 218 220 220 227 232 225 231 229 256 269 300 248 268 283 288 273 274 284 299 306 307 301 308 311 338 307 321 312 327 304 309
165 177 181 186 190 198 199 201 209 225 219 213 218 223 225 225 225 227 259 257 242 248 272 266 273 282 280 278 283 277 286 288 294 301 304 308 304 317 306 313 298 293 289
167 172 179 182 188 193 197 202 211 226 226 217 219 221 225 228 222 219 221 227 232 237 248 259 263 270 280 282 278 278 276 285 287 281 280 283 278 269 276 294 288 280 289
177 175 181 184 190 188 196 197 200 209 221 220 224 226 232 235 244 242 240 248 253 254 257 265 270 274 276 275 275 277 278 277 275 278 278 283 284 283 278 273 299 316 302
229 160 158 175 186 195 191 190 193 199 207 207 208 229 234 240 258 269 268 261 259 262 269 278 281 281 281 280 277 277 281 281 276 277 281 280 282 281 290 294 278 283 282
62 69 92 95 101 99 112 113 144 159 170 181 198 188 199 205 215 214 221 242 258 263 268 261 270 283 287 288 287 284 286 290 292 289 278 269 271 275 276 283 269 312 287
74 78 81 91 97 106 109 119 134 150 145 149 168 179 203 212 216 208 222 234 245 258 278 283 288 286 286 291 299 304 306 297 293 288 286 282 268 272 280 284 268 275 253
89 84 83 88 90 92 94 91 107 123 149 160 145 119 153 169 187 208 229 232 241 244 237 243 245 264 283 283 283 282 285 288 294 293 289 286 285 284 278 272 272 278 274
114 108 102 95 94 96 94 104 103 103 103 81 74 77 82 65 34 16 34 327 281 259 258 258 258 249 230 266 276 275 283 288 290 288 289 280 282 280 278 272 270 268 267
128 124 118 114 109 104 105 107 106 94 88 89 99 73 7 333 30 309 328 318 326 315 308 304 304 298 289 285 288 294 298 300 301 300 294 289 272 274 274 271 267 263 265
137 136 131 128 132 134 127 123 120 119 107 87 31 328 276 250 233 289 305 309 305 305 305 302 298 292 289 292 294 298 301 302 304 302 299 288 293 278 275 276 271 251 258
143 139 137 132 132 124 128 114 76 315 258 244 265 274 292 291 281 288 301 300 298 299 299 298 298 298 294 296 300 300 300 301 301 299 299 290 281 281 271 274 272 247 249
143 144 147 142 126 118 119 122 96 263 294 284 288 293 302 306 307 309 306 302 300 299 298 295 293 291 290 291 293 295 295 294 293 295 301 277 262 262 270 265 270 243 242
147 149 146 141 136 106 284 322 303 298 288 292 299 303 306 305 306 306 302 301 299 295 293 293 293 292 292 292 291 292 291 290 292 300 305 302 279 264 260 263 260 262 240
148 144 150 151 328 315 317 309 306 292 293 298 301 303 305 305 303 302 301 301 302 301 300 299 300 303 304 304 299 291 285 289 289 293 300 302 293 275 246 254 258 238 218
150 175 237 274 293 301 311 307 300 304 306 304 306 305 305 306 308 309 309 305 301 295 294 293 294 296 297 295 292 290 285 279 269 276 290 291 289 280 258 245 248 227 214
194 276 293 303 312 307 306 309 309 306 303 305 307 307 309 316 315 312 305 299 296 294 294 294 295 297 301 305 299 275 274 282 270 280 276 297 294 309 294 248 234 218 218
279 302 318 318 312 310 305 304 304 307 308 308 313 320 316 308 304 307 298 291 281 284 296 294 293 293 294 288 282 273 288 282 287 282 288 284 288 299 288 257 240 234 224
310 320 311 306 303 305 308 310 297 295 298 300 306 302 305 307 306 306 306 305 295 290 291 279 283 294 283 284 294 282 274 282 290 289 287 284 281 286 283 265 246 239 234